Regional Weather Roundup
Issued by NWS Spokane, WA

Home | Current Version | Previous Version | Text Only | Print | Product List | Glossary On
Versions: 1 2 3 4 5 6 7 8 9 10 11 12 13 14 15 16 17 18 19 20 21 22 23 24 25 26 27 28 29 30 31 32 33 34 35 36 37 38 39 40 41 42 43 44 45 46 47 48 49 50
000
NZUS01 KOTX 200810
RWROTX
EASTERN WASHINGTON/NORTHERN IDAHO ROUNDUP
NATIONAL WEATHER SERVICE, SPOKANE WA
100 AM PDT MON OCT 20 2014

Note: "fair" indicated few or no clouds below 12,000 feet with no
significant weather and/or obstructions to visibility.

...NORTHEAST WASHINGTON AND NORTHERN IDAHO PANHANDLE...

CITY           SKY/WX    TMP DP  RH WIND       PRES   REMARKS
SPOKANE INTL   CLEAR     52  47  83 E5        29.76F
SPOKANE DOWNTO CLEAR     49  46  90 CALM      29.77F
COEUR D ALENE  CLEAR     48  45  87 NE12      29.78F
DEER PARK      CLEAR     51  46  83 NE3       29.77F
SANDPOINT      FOG       37  37 100 CALM      29.81F VSB 1/4

...SOUTHEAST WASHINGTON AND SOUTHERN IDAHO PANHANDLE...

CITY           SKY/WX    TMP DP  RH WIND       PRES   REMARKS
WALLA WALLA    CLEAR     50  47  89 E5        29.72R
PULLMAN/MOSCOW CLEAR     54  40  59 E13       29.77F
LEWISTON       CLEAR     52  42  69 SE3       29.74S
LOWELL           N/A     46  44  93 CALM      29.89S

...COLUMBIA BASIN...

CITY           SKY/WX    TMP DP  RH WIND       PRES   REMARKS
EPHRATA        CLEAR     54  47  77 NW10      29.70F
MOSES LAKE     CLEAR     45  42  89 NE7       29.71F
TRI CITIES     CLEAR     45  44  97 N3        29.71S
HERMISTON      CLEAR     47  43  86 CALM      29.71S
PENDLETON      CLEAR     45  41  86 CALM      29.72S

...EAST SLOPES CASCADES...

CITY           SKY/WX    TMP DP  RH WIND       PRES   REMARKS
THE DALLES     CLEAR     53  51  93 S3        29.71F
YAKIMA         CLEAR     48  45  89 W8        29.73F
ELLENSBURG     CLEAR     47  42  83 CALM      29.74F
WENATCHEE      CLEAR     53  48  83 W7        29.74F
OMAK           CLEAR     44  42  93 CALM      29.74S

...SOUTHERN BRITISH COLUMBIA...

CITY           SKY/WX    TMP DP  RH WIND       PRES   REMARKS
PENTICTON      CLEAR     57  48  72 CALM      29.70R
CRANBROOK      PTCLDY    45  39  81 SW5       29.86S

...WESTERN MONTANA...

CITY           SKY/WX    TMP DP  RH WIND       PRES   REMARKS
MISSOULA       CLEAR     41  36  82 CALM      29.93S

...NEIGHBORING CITIES...

CITY           SKY/WX    TMP DP  RH WIND       PRES   REMARKS
SEATTLE        CLOUDY    60  55  83 SE3       29.72R
CALGARY        CLEAR     43  34  70 VRB2      29.69S



USA.gov is the U.S. government's official web portal to all federal, state and local government web resources and services.